Regional Weather Roundup
Issued by NWS

Home | Current Version | Previous Version | Graphics & Text | Print | Product List | Glossary On
Versions: 1 2 3 4 5 6 7 8 9 10 11 12 13 14 15 16 17 18 19 20 21 22 23 24 25 26 27 28 29 30 31 32 33 34 35 36 37 38 39 40 41 42 43 44 45 46 47 48 49 50
995
ASUS43 KIND 171909
RWRIN

WEATHER ROUNDUP FOR INDIANA
NATIONAL WEATHER SERVICE INDIANAPOLIS IN
200 PM EST TUE JAN 17 2017

NOTE: "FAIR" INDICATES FEW OR NO CLOUDS BELOW 12,000 FEET WITH NO
SIGNIFICANT WEATHER AND/OR OBSTRUCTIONS TO VISIBILITY.

* - STATION DOES NOT REPORT WEATHER SUCH AS PRECIPITATION OR FOG.

+ - STATION NOT QUALITY CONTROLLED BY THE NATIONAL WEATHER SERVICE.
    USE DATA WITH CAUTION...ESPECIALLY DEWPOINT AND RELATIVE
    HUMIDITY OBSERVATIONS.

INZ001>003-010>013-019-020-172000-
NORTHWEST INDIANA

CITY           SKY/WX    TMP DP  RH WIND       PRES   REMARKS
GARY /AIRPORT/ CLOUDY    39  37  93 W12       29.87R
KNOX *+        CLOUDY    39  32  75 W12       29.87R
LA PORTE +     CLOUDY    39  38  98 W9        29.86R FOG
MICHIGAN CITY+ CLOUDY    39  39 100 SW7       29.86R
MONTICELLO +   CLOUDY    42  40  95 W13G18    29.89S FOG
RENSSELAER +   CLOUDY    39  39 100 W13G22    29.90R FOG
VALPARAISO     CLOUDY    41  39  93 W12       29.87R

$$

LMZ046-743>745-172000-
SOUTHERN LAKE MICHIGAN

STATION/POSITION TIME  TEMP    WIND        PRES    WAVE
                       AIR SEA DIR/SP/G            HT
                 (UTC) (F)     (DEG/KT/KT) (MB)    (FT)
BURNS HARBOR     1840   37     250/  9/ 10 1011.9S

$$

INZ004-005-014>016-021>024-172000-
NORTH CENTRAL INDIANA

CITY           SKY/WX    TMP DP  RH WIND       PRES   REMARKS
ELKHART        CLOUDY    41  39  93 W14       29.83F FOG
GOSHEN         CLOUDY    42  39  89 W15       29.84R FOG
LOGANSPORT +   CLOUDY    41  41 100 W18G25    29.89S FOG
PERU/GRISSOM   CLOUDY    43  43 100 W14       29.87R
ROCHESTER +    CLOUDY    43  43 100 W10       29.87S FOG
SOUTH BEND     CLOUDY    39  39 100 W8        29.84S FOG
WARSAW +       CLOUDY    41  37  87 W9        29.85R FOG

$$

INZ006>009-017-018-025>027-172000-
NORTHEAST INDIANA

CITY           SKY/WX    TMP DP  RH WIND       PRES   REMARKS
ANGOLA *+      CLOUDY    43  36  75 W13       29.81S
AUBURN +       CLOUDY    45  41  87 SW13G24   29.84R
FORT WAYNE     CLOUDY    47  43  86 W17       29.85R
HUNTINGTON +   CLOUDY    45  43  95 W18G24    29.86R
KENDALLVILLE + FOG       42  42 100 W15       29.82S VSB 1/2

$$

INZ028-029-035-036-043>045-051>053-172000-
WEST CENTRAL INDIANA

CITY           SKY/WX    TMP DP  RH WIND       PRES   REMARKS
CRAWFORDSVL +  CLOUDY    41  41 100 SW14      29.93R
GREENCASTLE +  CLOUDY    43  41  93 W5        29.94S
LAFAYETTE      CLOUDY    43  42  97 SW9       29.91S FOG
TERRE HAUTE    CLOUDY    46  40  79 W13       29.97R

$$

INZ030>032-037>040-046>048-054>057-064-065-172000-
CENTRAL INDIANA

CITY           SKY/WX    TMP DP  RH WIND       PRES   REMARKS
CP ATTERBURY + CLOUDY    46  41  81 W10G21    29.95S
COLUMBUS       CLOUDY    48  46  93 W14       29.94R
FISHERS *+     CLOUDY    45  43  93 SW9G17    29.91F
FRANKFORT +    CLOUDY    46  44  94 W15       29.92S FOG
GREENWOOD *+   CLOUDY    47  42  84 W10       29.94S
INDIANAPOLIS   CLOUDY    47  41  80 SW13      29.93R
-EAGLE CREEK   CLOUDY    47  39  74 VRB7      29.91F
KOKOMO +       LGT RAIN  44  43  96 SW16      29.89S
MARION +       CLOUDY    45  43  93 W16       29.89S FOG
MT COMFORT *+  CLOUDY    45  41  87 W14G21    29.92S
SHELBYVILLE    CLOUDY    48  41  76 W16       29.93R
ZIONSVILLE +   CLOUDY    44  42  93 W13G18    29.92R FOG

$$

INZ033-034-041-042-049-050-058-059-172000-
EAST CENTRAL INDIANA

CITY           SKY/WX    TMP DP  RH WIND       PRES   REMARKS
MUNCIE         CLOUDY    49  41  74 SW15      29.88S

$$

INZ060-061-067>069-081>083-085>088-172000-
SOUTHWEST INDIANA

CITY           SKY/WX    TMP DP  RH WIND       PRES   REMARKS
EVANSVILLE     CLOUDY    48  40  73 NW7       30.01F
HUNTINGBURG *+ CLOUDY    49  43  80 W13       29.99F
WASHINGTON +   CLOUDY    46  40  77 W10       29.99R

$$

INZ062-063-066-070>080-084-089>092-172000-
SOUTH CENTRAL AND SOUTHEAST INDIANA

CITY           SKY/WX    TMP DP  RH WIND       PRES   REMARKS
BLOOMINGTON    CLOUDY    47  40  76 W9        29.95F
MADISON *+     PTSUNNY   54  46  76 W10G20    29.95S
NORTH VERNON + CLOUDY    54  46  76 SW23G29   29.93F
SEYMOUR +      PTSUNNY   54  45  71 W15       29.94F

$$





USA.gov is the U.S. government's official web portal to all federal, state and local government web resources and services.